Location: Unspecified
(63.7467°N, 0.0000°E)
Time: 18:18:35
(UTC+00:00)

FORTE - Visible Passes

Search period start: 04 April 2026 00:00
Search period end: 14 April 2026 00:00
Orbit: 784 x 814 km, 70.0° (Epoch: 28 March)

Date Brightness Start Highest point End Pass type
(mag) Time Alt. Az. Time Alt. Az. Time Alt. Az.
4 Apr 7.3 01:31:48 34° S 01:33:58 57° SE 01:39:17 10° NE visible
4 Apr 7.4 03:12:41 14° WSW 03:17:17 63° NNW 03:22:42 10° NE visible
4 Apr 8.9 23:23:14 15° ESE 23:23:49 15° ESE 23:26:49 10° ENE visible
5 Apr 7.5 01:04:06 35° S 01:05:55 49° SE 01:11:07 10° NE visible
5 Apr 7.3 02:45:00 18° WSW 02:49:05 70° NNW 02:54:32 10° NE visible
5 Apr 9.1 22:55:30 12° ESE 22:55:58 12° E 22:58:06 10° ENE visible
6 Apr 7.7 00:36:23 34° SSE 00:37:52 41° ESE 00:42:57 10° NE visible
6 Apr 7.1 02:17:15 21° WSW 02:20:54 77° NW 02:26:23 10° NE visible
6 Apr 7.9 03:59:33 10° W 04:04:46 46° N 04:10:02 10° ENE visible
7 Apr 7.9 00:08:37 31° SE 00:09:52 35° ESE 00:14:45 10° NE visible
7 Apr 7.1 01:49:29 25° SW 01:52:45 86° NW 01:58:14 10° NE visible
7 Apr 7.9 03:31:16 10° W 03:36:31 48° NNW 03:41:49 10° ENE visible
7 Apr 8.0 23:40:50 28° SE 23:41:54 30° ESE 23:46:32 10° NE visible
8 Apr 7.0 01:21:42 28° SW 01:24:37 84° SE 01:30:05 10° NE visible
8 Apr 7.8 03:02:59 10° W 03:08:16 51° NNW 03:13:36 10° ENE visible
8 Apr 8.2 23:13:00 24° SE 23:13:56 25° ESE 23:18:18 10° ENE visible
9 Apr 7.0 00:53:52 31° SSW 00:56:30 74° SE 01:01:56 10° NE visible
9 Apr 7.7 02:34:44 10° W 02:40:03 55° NNW 02:45:25 10° ENE visible
9 Apr 8.4 22:45:08 20° ESE 22:46:00 21° ESE 22:49:59 10° ENE visible
10 Apr 7.1 00:25:59 32° SSW 00:28:24 64° SE 00:33:47 10° NE visible
10 Apr 7.6 02:06:51 12° WSW 02:11:49 59° NNW 02:17:14 10° NE visible
10 Apr 8.1 03:50:41 10° WNW 03:55:52 44° N 04:01:07 10° ENE visible
10 Apr 8.6 22:17:13 17° ESE 22:18:06 18° ESE 22:21:36 10° ENE visible
10 Apr 7.2 23:58:05 32° S 00:00:20 55° SE 00:05:38 10° NE visible
11 Apr 7.4 01:38:56 14° WSW 01:43:37 65° NNW 01:49:03 10° NE visible
11 Apr 8.1 03:22:24 10° WNW 03:27:37 44° N 03:32:52 10° ENE visible
11 Apr 8.8 21:49:15 14° ESE 21:50:14 15° E 21:53:04 10° ENE visible
11 Apr 7.4 23:30:06 30° S 23:32:17 47° ESE 23:37:28 10° NE visible
12 Apr 7.3 01:10:58 15° WSW 01:15:25 71° NNW 01:20:54 10° NE visible
12 Apr 8.1 02:54:08 10° W 02:59:21 45° N 03:04:37 10° ENE visible
12 Apr 8.9 21:21:12 11° ESE 21:22:22 12° E 21:24:16 10° ENE visible
12 Apr 7.6 23:02:04 27° SSE 23:04:15 40° ESE 23:09:18 10° NE visible
13 Apr 7.2 00:42:55 16° WSW 00:47:15 79° NW 00:52:44 10° NE visible
13 Apr 8.0 02:25:51 10° W 02:31:05 47° NNW 02:36:23 10° ENE visible
13 Apr 7.8 22:33:56 24° SSE 22:36:15 34° ESE 22:41:06 10° NE visible
